Weather History for Imperial, NE

Change the Weather History Date:

Monday, December 5, 2011

  Actual Average Record
Temperature  
Mean Temperature 9 °F 30 °F  
Max Temperature 19 °F 43 °F 72 °F (1939)
Min Temperature -1 °F 17 °F -16 °F (1909)
Degree Days  
Heating Degree Days 56 35  
Month to date heating degree days 223 172  
Cooling Degree Days 0 0  
Month to date cooling degree days 0 0  
Year to date cooling degree days 1096 963  
Moisture  
Dew Point 2 °F    
Average Humidity 71    
Maximum Humidity 86    
Minimum Humidity 56    
Precipitation  
Precipitation T in 0.02 in 2.10 in (1913)
Sea Level Pressure  
Sea Level Pressure 30.58 in    
Wind  
Wind Speed 10 mph (NW)    
Max Wind Speed 18 mph    
Max Gust Speed 23 mph    
Visibility 10 miles    
Events      
T = Trace of Precipitation, MM = Missing Value Source: NWS Daily Summary

Daily Weather History Graph

Daily Weather History Graph

Search for Another Location

Airport:

Trip Planner

Search our weather history database for the weather conditions in past years. The results will help you decide how hot, cold, wet, or windy it might be!

Date:

Astronomy

Dec. 05, 2011 Rise Set
Actual Time 6:54 AM MST 4:19 PM MST
Civil Twilight 6:23 AM MST 4:50 PM MST
Nautical Twilight 5:49 AM MST 5:24 PM MST
Astronomical Twilight 5:16 AM MST 5:57 PM MST
Moon 1:18 PM MST (12/5) 2:17 AM MST (12/5)
Length of Visible Light 10h 26m
Length of Day
9h 25m
Waxing Gibbous, 80% of the Moon is Illuminated
Dec 5
Waxing Gibbous
Dec 10
Full
Dec 17
Last Quarter
Dec 24
New
Dec 31
First Quarter

Hourly Weather History & Observations

Time (MST) Temp. Windchill Dew Point Humidity Pressure Visibility Wind Dir Wind Speed Gust Speed Precip Events Conditions
12:53 AM 10.0 °F -5.2 °F 3.0 °F 73% 30.57 in 10.0 mi NNW 12.7 mph - N/A   Clear
1:53 AM 9.0 °F -5.1 °F 3.0 °F 77% 30.57 in 10.0 mi NNW 10.4 mph - N/A   Clear
2:53 AM 10.0 °F -6.5 °F 3.0 °F 73% 30.58 in 10.0 mi NNW 15.0 mph - N/A   Clear
3:53 AM 9.0 °F -7.3 °F 1.9 °F 73% 30.57 in 10.0 mi NNW 13.8 mph - N/A   Clear
4:53 AM 8.1 °F -8.4 °F 1.9 °F 76% 30.58 in 10.0 mi NNW 13.8 mph - N/A   Clear
5:53 AM 7.0 °F -9.8 °F 1.9 °F 80% 30.61 in 10.0 mi NNW 13.8 mph - N/A   Clear
6:53 AM 7.0 °F -10.4 °F 1.0 °F 77% 30.64 in 10.0 mi NNW 15.0 mph - N/A   Clear
7:53 AM 7.0 °F -9.8 °F 1.0 °F 77% 30.65 in 10.0 mi NNW 13.8 mph - N/A   Clear
8:53 AM 10.9 °F -4.7 °F 3.0 °F 70% 30.66 in 10.0 mi NNW 13.8 mph - N/A   Clear
9:53 AM 14.0 °F -2.0 °F 3.9 °F 64% 30.67 in 10.0 mi North 16.1 mph - N/A   Clear
10:53 AM 16.0 °F 0.6 °F 3.9 °F 59% 30.65 in 10.0 mi North 16.1 mph - N/A   Clear
11:53 AM 16.0 °F 4.4 °F 5.0 °F 62% 30.63 in 10.0 mi North 9.2 mph - N/A   Clear
12:53 PM 18.0 °F 7.7 °F 5.0 °F 57% 30.59 in 10.0 mi North 8.1 mph - N/A   Clear
1:53 PM 18.0 °F 7.7 °F 6.1 °F 60% 30.56 in 10.0 mi North 8.1 mph - N/A   Clear
2:53 PM 17.6 °F 12.3 °F 6.8 °F 63% 30.38 in 10.0 mi North 3.5 mph - N/A   Clear
3:53 PM 18.0 °F - 5.0 °F 57% 30.55 in 10.0 mi Calm Calm - N/A   Clear
4:53 PM 14.0 °F - 3.9 °F 64% 30.56 in 10.0 mi Calm Calm - N/A   Clear
5:53 PM 8.1 °F - 3.0 °F 80% 30.58 in 10.0 mi Calm Calm - N/A   Clear
6:53 PM 3.0 °F -8.0 °F -0.9 °F 84% 30.60 in 10.0 mi SW 5.8 mph - N/A   Clear
7:53 PM 5.0 °F -8.1 °F -0.0 °F 80% 30.60 in 10.0 mi West 8.1 mph - N/A   Clear
8:53 PM 3.0 °F -11.5 °F -2.0 °F 80% 30.58 in 10.0 mi WSW 9.2 mph - N/A   Clear
9:53 PM 1.0 °F -11.7 °F -4.0 °F 79% 30.57 in 10.0 mi West 6.9 mph - N/A   Clear
10:53 PM -0.0 °F -15.3 °F -5.1 °F 79% 30.55 in 10.0 mi WSW 9.2 mph - N/A   Clear
11:53 PM -0.0 °F -14.2 °F -5.1 °F 79% 30.53 in 10.0 mi WSW 8.1 mph - N/A   Clear